Regional Weather Roundup
Issued by NWS Northern Indiana

Home | Current Version | Previous Version | Graphics & Text | Print | Product List | Glossary On
Versions: 1 2 3 4 5 6 7 8 9 10 11 12 13 14 15 16 17 18 19 20 21 22 23 24 25 26 27 28 29 30 31 32 33 34 35 36 37 38 39 40 41 42 43 44 45 46 47 48 49 50
647
ASUS43 KIWX 011000
RWRIWX

KIWX WEATHER ROUNDUP
NATIONAL WEATHER SERVICE NORTHERN INDIANA
600 AM EDT SAT OCT 01 2016

NOTE: "FAIR" INDICATES FEW OR NO CLOUDS BELOW 12,000 FEET WITH NO
SIGNIFICANT WEATHER AND/OR OBSTRUCTIONS TO VISIBILITY.

* THESE STATIONS ARE NOT UNDER NWS QUALITY CONTROL. THEY ALSO MAY NOT
  REPORT WEATHER SUCH AS PRECIPITATION OR FOG.

INZ001>027-011100-
NORTHERN INDIANA

CITY           SKY/WX    TMP DP  RH WIND       PRES   REMARKS
GARY*          MOCLDY    57  57 100 NE3       30.02F
SOUTH BEND     TSTM      58  58 100 NE5       30.01S FOG
GOSHEN         RAIN      59  57  93 NE9       29.99S FOG
ANGOLA*          N/A     59  48  67 E8        30.01S
FORT WAYNE     CLOUDY    58  57  97 SE3       30.00R FOG
PERU/GRISSOM   CLOUDY    58  58 100 VRB1      29.98S

$$
INZ028>050-011100-
CENTRAL INDIANA

CITY           SKY/WX    TMP DP  RH WIND       PRES   REMARKS
LAFAYETTE      CLOUDY    57  57 100 S5        29.98S
KOKOMO*        CLOUDY    57  57 100 S5        30.00F
MUNCIE*        CLOUDY    56  53  90 S3        30.01R
INDIANAPOLIS   PTCLDY    53  51  93 SE3       29.99F

$$
MIZ043>046-050>051-056>058-064>065-071>073-077>080-011100-
SOUTHWEST LOWER MICHIGAN

CITY           SKY/WX    TMP DP  RH WIND       PRES   REMARKS
BATTLE CREEK   HVY RAIN  57  57 100 NE7       30.03F FOG
BENTON HARBOR  LGT RAIN  61  58  90 NE6       30.01F
COLDWATER*     CLOUDY    59  58  98 E7        30.02S
HILLSDALE*     CLOUDY    57  55  94 E6        30.03R FOG
HOLLAND        CLOUDY    59  56  89 NE7       30.05F
GRAND RAPIDS   LGT RAIN  57  55  93 NE10      30.06S
KALAMAZOO      LGT RAIN  59  56  89 NE6       30.03F FOG
STURGIS*       CLOUDY    59  57  94 E9        30.00S
THREE RIVERS*  CLOUDY    60  59  98 E9        30.02S

$$
OHZ001>008-015>018-024>025-011100-
NORTHWEST OHIO

CITY           SKY/WX    TMP DP  RH WIND       PRES   REMARKS
DEFIANCE       CLOUDY    61  58  90 E6        30.01S
FINDLAY        PTCLDY    58  55  90 E6        30.02S
TOLEDO EXPRESS CLOUDY    59  59 100 VRB5      30.03R
TOLEDO METCALF CLOUDY    60  59  96 SE9       30.04R
LIMA           PTCLDY    55  54  96 SE6       30.02S

$$
AND FOR LAKE MICHIGAN COASTAL AND OPEN LAKE BUOY OBSERVATIONS

STATION/POSITION TEMP    WIND        PRES    VSBY  WAVE
                 AIR SEA DIR/SP/G                  HT/PER
                 (F)     (DEG/KT/KT) (MB)    (MI)  (FT/S)
CALUMET HARBOR    61     360/  2/  4 1016.0F
MICHIGAN CITY     61      10/ 15/ 16   N/A
BURNS HARBOR      62      40/  9/ 10 1016.6F
SAINT JOSEPH      56      30/  4/ 10 1016.6F
SOUTH LAKE BUOY   62 67  100/  6/  8 1016.7          4/ 6
4 MI NW BRIDGMAN  54 51   20/  8/ 10 1016.5F         3/ 6
MICHIGAN CITY     62 64   30/ 12/ 16   N/A           3/ 6

$$
&&




USA.gov is the U.S. government's official web portal to all federal, state and local government web resources and services.